SCP
0 0 0 0 0 0 0 0 0 0 0 0 0 0 0 0 0 1 1 1 1 1 1 2 2 2 2 2 2 1 1 1 1 1 1 1 0 0 0 0 0 0 0 0
0 0 0 0 0 0 0 0 0 0 0 0 0 0 0 0 0 1 1 1 1 1 2 2 2 2 2 2 2 2 1 1 1 1 1 0 0 0 0 0 0 0 0 0
0 0 0 0 0 0 0 0 0 0 0 0 0 0 0 0 0 1 1 1 1 2 2 2 2 2 2 2 2 2 2 1 1 1 1 0 0 0 0 0 0 0 0 0
0 0 0 0 0 0 0 0 0 0 0 0 0 0 0 0 0 1 1 1 1 2 2 2 2 2 2 2 2 2 2 1 1 1 1 0 0 0 0 0 0 0 0 0
0 0 0 0 0 0 0 0 0 0 0 0 0 0 0 0 0 0 1 1 1 2 2 2 2 2 2 2 2 2 2 1 1 1 1 1 0 0 0 0 0 0 0 0
0 0 0 0 0 0 0 0 0 0 0 0 0 0 0 0 0 0 1 1 1 2 2 2 2 2 2 2 2 2 1 1 1 1 1 1 0 0 0 0 0 0 0 0
0 0 0 0 0 0 0 0 0 0 0 0 0 0 0 0 0 0 1 1 1 2 2 2 2 2 2 2 2 2 1 1 1 1 1 1 0 0 0 0 0 0 0 0
0 0 0 0 0 0 0 0 0 0 0 0 0 0 0 0 0 0 1 1 1 2 2 2 2 2 2 2 2 2 1 1 1 1 1 1 0 0 0 0 0 0 0 0
0 0 0 0 0 0 0 0 0 0 0 0 0 0 0 0 0 0 1 1 1 2 2 2 2 2 2 2 2 2 1 1 1 1 1 1 0 0 0 0 0 0 0 0
0 0 0 0 0 0 0 0 0 0 0 0 0 0 0 0 0 0 1 1 1 2 2 2 2 2 2 2 2 2 1 1 1 1 1 1 0 0 0 0 0 0 0 0
0 0 0 0 0 0 0 0 0 0 0 0 0 0 0 0 0 0 1 1 1 2 2 2 2 2 2 2 2 2 2 1 1 1 1 1 1 0 0 0 0 0 0 0
0 0 0 0 0 0 0 0 0 0 0 0 0 0 0 0 0 0 0 1 1 1 2 2 2 2 2 2 2 2 2 1 1 1 1 1 1 1 0 0 0 0 0 0
0 0 0 0 0 0 0 0 0 0 0 0 0 0 0 0 0 0 0 1 1 1 2 2 2 2 2 2 2 2 1 1 1 1 1 1 1 1 0 0 0 0 0 0
0 0 0 0 0 0 0 0 0 0 0 0 0 0 0 0 0 0 0 1 1 1 2 2 2 2 2 2 1 1 1 1 1 1 1 1 1 1 1 0 0 0 0 0
0 0 0 0 0 0 0 0 0 0 0 0 0 0 0 0 0 0 1 1 1 1 2 2 2 1 1 1 1 1 1 1 1 1 1 1 1 1 1 0 0 0 0 0
0 0 0 0 0 0 0 0 0 0 0 0 0 0 0 0 0 0 1 1 1 1 1 1 1 1 1 1 1 1 1 1 1 1 1 1 1 1 1 0 0 0 0 0
0 0 0 0 0 0 0 0 0 0 0 0 0 0 0 0 0 1 1 1 1 1 1 1 1 1 1 1 1 1 1 1 1 1 1 1 1 1 0 0 0 0 0 0
0 0 0 0 0 0 0 0 0 0 0 0 0 0 0 0 0 0 1 1 1 1 1 1 1 1 1 1 1 1 1 1 1 1 1 1 1 1 0 0 0 0 0 0
0 0 0 0 0 0 0 0 0 0 0 0 0 0 1 1 1 1 1 1 1 1 1 1 1 1 1 1 1 1 1 1 1 1 1 1 1 0 0 0 0 0 0 0
0 0 0 0 0 0 0 0 0 0 0 0 1 1 1 1 1 1 1 1 1 1 1 1 2 2 1 1 1 1 1 1 1 1 1 1 0 0 0 0 0 0 0 0
0 0 0 0 0 0 0 0 0 0 0 0 1 1 1 1 1 1 1 1 1 1 1 1 1 1 1 1 1 1 1 1 1 1 0 0 0 0 0 0 0 0 0 0
0 0 0 0 0 0 0 0 0 0 0 0 1 1 1 1 1 1 1 1 1 1 1 1 1 1 1 1 1 1 1 1 1 1 0 0 0 0 0 0 0 0 0 0
0 0 0 0 0 0 0 0 0 0 0 0 1 1 1 1 1 1 1 1 1 1 1 1 1 1 1 1 1 1 0 0 0 0 0 0 0 0 0 0 0 0 0 0
0 0 0 0 0 0 0 0 0 0 0 1 1 1 1 1 1 1 1 1 1 1 1 1 1 1 1 1 0 0 0 0 0 0 0 0 0 0 0 0 0 0 0 0
0 0 0 0 0 0 0 0 0 0 0 0 1 1 1 1 1 1 1 1 1 1 1 1 1 1 1 1 0 0 0 0 0 0 0 0 0 0 0 0 0 0 0 0
0 0 0 0 0 0 0 0 0 0 0 0 0 1 1 1 1 1 1 1 1 1 1 1 1 1 1 0 0 0 0 0 0 0 0 0 0 0 0 0 0 0 0 0
Wind_Speed
3 3 5 7 7 6 4 4 7 10 8 3 6 8 10 10 11 11 12 12 13 14 12 12 13 13 13 12 12 12 12 10 8 6 5 5 5 4 4 4 5 6 6 6
0 6 8 6 5 6 7 8 10 11 8 2 4 6 8 10 13 15 15 15 15 12 11 12 12 12 13 14 13 13 12 11 10 7 5 4 4 4 4 4 5 6 6 6
8 6 7 8 8 8 9 8 9 8 8 3 2 2 4 5 8 11 14 15 16 18 18 16 15 14 14 15 15 14 13 12 10 8 5 4 3 2 2 3 4 5 7 6
7 9 7 9 10 8 9 9 8 7 3 4 2 3 6 5 6 9 11 13 15 15 15 15 15 15 16 15 14 12 12 11 10 10 8 8 7 6 6 5 4 5 6 6
7 7 9 10 13 11 9 8 6 5 3 2 2 3 7 3 6 9 10 13 14 15 16 17 17 16 14 13 13 11 11 11 10 10 11 9 7 5 3 4 5 6 5 6
9 7 7 10 10 10 9 4 4 3 4 2 5 4 6 5 9 10 10 12 13 14 15 15 13 11 10 11 11 11 11 11 11 11 11 11 10 8 7 6 6 5 4 4
6 9 8 6 6 6 4 4 3 4 3 6 4 3 8 8 8 11 12 12 14 15 15 13 13 13 13 13 13 12 12 11 11 11 11 11 10 10 10 8 8 7 5 4
5 7 8 7 8 7 6 10 9 6 4 4 3 4 7 6 4 5 8 10 12 14 14 15 16 15 14 14 13 13 13 12 12 12 11 10 10 8 7 8 7 7 6 6
6 7 7 6 6 8 5 5 9 8 2 0 4 5 7 3 0 1 3 7 10 13 14 14 14 14 13 14 14 14 14 12 11 11 10 9 9 9 8 7 6 5 5 6
5 4 6 6 3 3 8 8 6 6 4 3 4 3 4 6 3 1 2 5 7 10 13 12 12 13 12 12 11 11 12 12 10 10 10 9 9 9 8 7 8 7 7 6
5 3 6 3 4 6 2 3 5 5 6 7 3 7 6 6 5 4 4 5 7 10 12 12 11 11 10 9 10 10 10 10 9 10 9 9 8 8 8 8 8 8 7 7
3 5 4 6 6 7 7 7 7 6 4 5 4 8 7 4 4 4 5 6 6 8 9 10 10 10 9 9 9 9 9 9 10 9 9 9 8 8 8 8 8 8 8 8
4 5 1 7 7 3 2 4 5 6 5 5 5 8 4 1 1 2 5 6 6 6 7 8 8 9 9 9 9 8 8 8 8 8 9 8 8 8 8 8 8 8 8 7
5 5 6 7 5 2 2 3 3 6 4 4 7 7 6 3 1 1 4 5 7 7 7 8 7 7 8 8 8 8 7 7 7 7 8 9 9 9 8 7 7 7 7 7
5 3 3 4 3 2 3 4 3 4 7 7 8 8 9 6 5 4 4 6 6 7 6 7 7 6 6 6 6 6 6 6 6 7 8 8 8 7 7 7 6 6 6 7
4 2 1 2 3 3 4 4 3 3 4 4 4 6 5 2 3 4 5 7 6 6 7 7 7 6 6 6 6 5 5 6 6 7 7 6 6 6 7 7 6 6 6 5
2 3 3 2 4 3 4 4 2 1 1 5 6 7 3 4 4 5 6 6 6 6 6 6 7 6 6 6 6 6 5 5 6 6 6 6 6 7 6 7 6 6 5 5
3 2 2 1 2 3 7 3 0 1 1 1 3 4 6 7 5 3 4 6 5 4 5 5 5 5 4 4 4 5 5 5 5 5 5 6 6 6 6 6 6 5 4 4
6 5 3 3 2 4 6 2 0 1 3 2 3 3 5 7 7 4 2 5 5 4 5 5 5 5 4 4 5 5 5 4 4 4 5 5 6 7 6 6 5 4 4 4
4 5 4 3 2 5 6 4 3 3 2 2 4 5 6 6 5 2 2 5 5 4 4 5 5 5 5 4 5 6 5 4 4 3 4 4 5 6 6 6 5 3 3 3
3 2 4 3 2 5 6 5 2 4 5 3 4 6 6 4 5 6 6 6 6 5 5 6 7 6 4 4 6 6 5 4 3 4 4 4 4 5 5 5 4 4 4 4
5 4 4 4 3 7 5 2 3 4 3 2 3 5 6 7 7 7 7 7 7 7 6 6 7 5 4 4 6 5 4 3 4 5 5 4 4 4 4 5 5 5 5 4
3 5 5 6 7 6 2 1 2 2 2 1 3 6 10 9 8 6 6 6 6 7 6 5 6 6 4 3 4 5 3 3 5 5 5 5 5 4 4 5 5 5 4 3
2 0 2 1 2 3 2 2 3 2 3 3 5 7 8 9 8 7 6 6 5 6 6 6 7 6 4 3 4 3 4 5 6 6 5 5 5 5 5 4 4 4 3 3
3 2 1 0 2 3 4 3 2 4 5 7 6 7 8 9 9 8 7 6 6 6 6 6 7 6 5 4 4 4 4 6 6 6 6 5 5 5 6 6 5 4 3 2
2 1 2 3 4 2 2 2 3 5 5 5 7 8 7 8 9 8 7 7 7 7 6 6 6 6 5 5 5 4 4 6 7 6 5 4 4 5 6 7 7 11 9 10
Wind_Direction
203 138 209 217 199 204 248 282 283 278 282 242 206 204 196 189 176 176 178 178 181 185 185 174 171 169 169 167 167 168 166 167 161 158 160 158 165 170 170 181 179 175 172 166
166 236 224 218 228 239 254 269 276 289 287 266 208 216 204 188 183 180 179 181 184 176 174 173 172 170 171 173 173 171 172 171 171 171 165 161 158 170 176 183 185 182 178 175
199 232 211 222 236 241 252 240 250 265 304 332 156 275 227 207 190 184 183 184 183 179 178 177 177 177 174 177 178 178 177 175 174 163 148 142 133 139 170 185 187 191 186 184
234 245 227 217 233 224 251 242 241 253 265 281 153 210 262 206 202 193 189 185 187 184 180 178 179 178 180 181 179 175 175 175 173 166 168 169 176 184 192 185 187 190 189 187
234 222 220 224 228 221 233 245 244 246 221 274 311 158 263 218 204 210 199 190 191 187 182 182 184 182 179 176 175 174 174 177 176 177 179 178 185 187 174 173 180 188 192 191
241 249 214 221 235 226 227 260 332 28 75 259 248 169 252 224 206 205 203 192 190 186 186 185 181 171 171 173 175 175 176 181 182 183 183 184 184 179 176 183 185 191 193 195
274 268 253 233 234 252 197 124 29 354 11 247 252 174 240 240 214 197 194 194 190 186 180 177 173 173 176 177 179 180 181 187 186 187 190 191 188 184 188 188 190 191 192 197
217 265 247 220 200 203 197 150 161 186 211 273 304 223 252 255 224 203 195 190 180 181 178 179 180 179 179 180 180 180 185 189 188 190 192 191 188 187 194 194 191 196 198 198
200 245 258 229 202 178 185 177 168 141 174 240 285 283 303 310 5 186 174 164 173 177 175 178 179 179 179 182 183 183 186 189 191 191 188 190 189 191 194 193 191 194 198 197
186 249 271 246 228 214 177 167 114 124 158 228 284 274 257 280 270 251 136 163 186 177 172 174 176 178 181 181 181 182 186 191 189 188 190 194 193 193 193 193 195 195 198 199
178 197 296 323 200 209 167 136 127 136 155 159 230 266 233 235 230 196 177 172 183 175 174 173 173 176 176 173 173 180 186 187 189 190 190 192 192 192 192 196 198 196 194 192
174 144 247 264 249 205 177 175 151 156 208 168 171 259 263 233 230 178 168 171 161 164 167 167 165 163 165 169 173 179 184 188 192 191 188 191 189 189 193 198 196 191 192 192
146 124 105 330 334 337 170 168 154 143 142 161 172 255 278 280 272 166 150 144 144 147 149 149 150 158 166 171 174 179 184 189 189 187 186 189 190 193 197 199 196 192 191 188
127 122 156 192 221 249 254 247 169 131 155 201 211 231 267 260 215 159 130 128 137 145 151 147 151 163 172 174 174 176 182 186 186 186 189 194 197 198 198 194 191 188 186 183
86 131 192 218 250 288 268 265 222 172 179 188 218 211 229 217 188 166 137 123 124 135 144 151 156 160 161 162 171 174 181 184 185 185 191 199 198 194 189 185 181 180 182 184
49 105 93 323 325 312 291 297 273 226 193 186 184 226 229 185 128 123 130 131 135 141 151 156 154 149 153 159 166 171 183 186 177 182 194 194 188 183 182 178 171 170 176 177
28 83 93 291 317 4 292 271 246 241 219 166 191 225 173 135 141 152 150 144 147 144 150 155 156 158 162 166 167 173 179 171 174 184 190 186 181 175 178 174 165 170 172 174
141 105 119 125 46 224 241 250 219 110 1 142 180 184 157 144 140 139 147 137 136 145 152 154 151 150 154 156 158 161 153 156 166 174 180 177 170 164 161 158 164 171 169 173
162 143 121 120 175 270 290 305 50 115 319 350 111 127 138 132 92 51 79 123 126 142 146 145 145 141 134 139 144 135 134 141 146 158 165 167 159 154 153 161 168 168 163 168
135 123 120 133 167 223 247 278 269 120 278 304 131 143 148 128 119 181 137 113 104 101 105 112 108 101 106 122 127 127 133 132 141 151 147 145 145 150 155 160 154 142 143 147
105 105 154 172 207 261 265 293 50 131 220 260 154 148 144 139 166 159 132 104 101 102 101 106 104 102 106 111 118 126 131 143 150 133 120 122 135 143 143 139 133 127 124 119
158 163 184 166 194 248 291 16 121 211 244 227 147 127 111 106 114 122 116 106 101 102 104 105 103 101 100 106 115 120 136 147 127 121 118 118 121 130 130 126 127 127 128 125
169 184 182 182 208 238 268 163 210 177 162 153 130 121 120 117 119 114 108 106 102 114 111 108 110 104 92 94 111 125 131 120 114 112 114 113 107 101 114 124 127 127 130 135
312 315 132 140 264 291 340 27 21 66 105 88 109 114 115 117 118 114 107 108 98 95 97 101 100 98 88 80 88 113 117 113 113 113 112 108 106 99 90 92 104 116 122 135
289 339 40 48 296 352 350 23 70 75 79 86 92 101 108 112 106 113 111 105 103 99 95 99 101 98 89 79 74 82 102 106 106 107 108 108 106 105 92 78 65 82 74 98
266 191 171 231 238 197 272 330 72 90 99 106 105 96 95 105 106 107 105 101 100 101 99 96 94 92 84 79 73 74 96 111 115 110 106 108 108 105 105 103 82 59 66 66